FW6389 Weather Reports


Display with metric or nautical units.
time (UTC)temp
F
wind
direction
speed
MPH
gust
MPH
rain 1hr
in
rain 24hr
in
rain mn
in
humidity
%
barometer
mb
20200329063637 40 261 1.0 3.0 0.00 0.40 0.01 88 1016.4
20200329063137 40 275 0.0 3.0 0.01 0.40 0.01 88 1016.1
20200329062632 40 140 0.0 1.0 0.01 0.40 0.01 88 1016.2
20200329062132 40 140 1.0 1.0 0.01 0.40 0.01 88 1016.5
20200329061633 40 140 1.0 2.0 0.01 0.40 0.01 88 1016.6
20200329061132 40 140 0.0 2.0 0.01 0.40 0.01 88 1016.7
20200329060631 40 140 1.0 1.0 0.01 0.40 0.01 88 1016.8
20200329060134 40 140 0.0 1.0 0.01 0.40 0.01 88 1017.0
20200329055625 40 140 0.0 0.0 0.01 0.40 0.01 88 1016.9
20200329055123 40 140 0.0 2.0 0.01 0.40 0.01 88 1017.0
20200329054621 40 140 0.0 2.0 0.01 0.40 0.01 88 1016.8
20200329054119 40 140 0.0 2.0 0.01 0.40 0.01 88 1016.9
20200329053619 40 140 1.0 4.0 0.01 0.40 0.01 88 1016.8
20200329053117 40 140 1.0 4.0 0.00 0.39 0.00 88 1016.8
20200329052613 40 187 1.0 2.0 0.00 0.39 0.00 88 1016.9
20200329052112 40 252 1.0 3.0 0.00 0.39 0.00 88 1017.1
20200329051613 40 252 1.0 3.0 0.00 0.39 0.00 88 1017.2
20200329051112 40 265 0.0 1.0 0.00 0.39 0.00 88 1017.1
20200329050611 40 246 0.0 2.0 0.00 0.39 0.00 88 1016.9
20200329050114 40 245 0.0 2.0 0.00 0.39 0.00 88 1016.8
20200329045609 40 244 0.0 0.0 0.00 0.39 0.00 88 1016.7
20200329045107 40 244 0.0 0.0 0.00 0.39 0.00 88 1016.5
20200329044606 40 244 0.0 0.0 0.00 0.39 0.00 87 1016.6
20200329044107 40 244 0.0 0.0 0.00 0.39 0.00 87 1016.8
20200329043605 40 244 0.0 0.0 0.00 0.39 0.00 87 1016.7
20200329043104 40 244 0.0 2.0 0.00 0.39 0.00 87 1016.7
20200329042603 40 235 1.0 2.0 0.00 0.39 0.00 87 1016.7
20200329042103 40 237 0.0 2.0 0.00 0.39 0.00 87 1016.5
20200329041602 40 242 1.0 3.0 0.00 0.39 0.00 87 1016.6
20200329041103 40 258 1.0 3.0 0.00 0.39 0.00 87 1016.7
20200329040601 40 110 0.0 2.0 0.00 0.39 0.00 86 1016.7
20200329040101 40 110 0.0 0.0 0.00 0.39 0.00 86 1016.7
20200329035602 40 110 0.0 1.0 0.00 0.39 0.39 86 1016.8
20200329035101 40 110 0.0 1.0 0.00 0.39 0.39 86 1016.8
20200329034557 40 110 0.0 1.0 0.00 0.39 0.39 86 1017.0
20200329034057 40 110 0.0 1.0 0.00 0.39 0.39 86 1017.0
20200329033559 40 110 0.0 1.0 0.01 0.39 0.39 86 1017.0
20200329033053 40 110 0.0 2.0 0.01 0.39 0.39 86 1017.1
20200329032553 40 110 0.0 2.0 0.01 0.39 0.39 85 1017.2
20200329032053 40 108 0.0 1.0 0.01 0.39 0.39 85 1017.3
20200329031548 40 108 0.0 2.0 0.01 0.39 0.39 85 1017.2
20200329031047 40 108 1.0 3.0 0.01 0.39 0.39 85 1017.4
20200329030548 40 108 1.0 3.0 0.01 0.39 0.39 85 1017.5
20200329030047 40 108 1.0 3.0 0.01 0.39 0.39 85 1017.6
20200329025545 40 108 1.0 3.0 0.01 0.39 0.39 84 1017.6
20200329025048 40 108 1.0 3.0 0.01 0.39 0.39 84 1017.4
20200329024539 40 108 1.0 2.0 0.01 0.39 0.39 84 1017.4
20200329024039 40 131 0.0 2.0 0.01 0.39 0.39 84 1017.3
20200329023537 40 131 1.0 4.0 0.00 0.38 0.38 84 1017.3
20200329023036 40 131 2.0 4.0 0.00 0.38 0.38 84 1017.2
20200329022535 40 144 2.0 4.0 0.01 0.38 0.38 84 1017.3
20200329022035 41 138 2.0 4.0 0.01 0.38 0.38 84 1017.2
20200329021533 41 180 1.0 3.0 0.01 0.38 0.38 84 1017.1
20200329021031 41 204 0.0 3.0 0.01 0.38 0.38 84 1017.3
20200329020532 41 319 1.0 3.0 0.01 0.38 0.38 83 1017.2
20200329020030 41 319 1.0 4.0 0.01 0.38 0.38 83 1017.1
20200329015529 41 319 2.0 7.0 0.01 0.38 0.38 83 1017.1
20200329015029 41 23 2.0 7.0 0.01 0.38 0.38 83 1017.2
20200329014525 41 348 1.0 4.0 0.01 0.38 0.38 83 1017.3
20200329014026 41 232 2.0 5.0 0.01 0.38 0.38 82 1017.3
20200329013523 41 5 2.0 6.0 0.01 0.38 0.38 82 1017.4
20200329013023 41 19 3.0 8.0 0.01 0.38 0.38 82 1017.3
20200329012523 41 351 3.0 8.0 0.00 0.37 0.37 81 1017.5
20200329012026 41 78 2.0 6.0 0.00 0.37 0.37 81 1017.7
20200329011519 41 5 2.0 6.0 0.01 0.37 0.37 82 1017.7
20200329011019 41 340 2.0 10.0 0.01 0.37 0.37 82 1017.7
20200329010519 41 0 3.0 10.0 0.01 0.37 0.37 82 1017.7
20200329010018 41 13 3.0 10.0 0.01 0.37 0.37 83 1017.6
20200329005517 41 10 4.0 10.0 0.01 0.37 0.37 82 1017.7
20200329005017 40 22 3.0 11.0 0.02 0.37 0.37 84 1017.9
20200329004511 40 323 2.0 11.0 0.02 0.37 0.37 86 1018.0
20200329004011 40 13 1.0 4.0 0.03 0.37 0.37 86 1017.7
20200329003514 40 20 1.0 5.0 0.03 0.37 0.37 86 1017.7
20200329003012 39 281 1.0 5.0 0.03 0.37 0.37 86 1017.6
20200329002511 39 334 1.0 5.0 0.04 0.37 0.37 86 1017.6
20200329002011 39 339 1.0 2.0 0.04 0.36 0.37 86 1017.6
20200329001507 39 339 1.0 3.0 0.04 0.36 0.36 86 1017.7
20200329001007 39 288 1.0 3.0 0.04 0.36 0.36 86 1017.7
20200329000507 39 24 1.0 3.0 0.05 0.36 0.36 86 1017.7
20200329000007 39 25 0.0 2.0 0.05 0.36 0.36 86 1017.6
20200328235505 39 25 0.0 2.0 0.06 0.36 0.36 86 1017.6
20200328235008 40 25 0.0 2.0 0.05 0.35 0.36 86 1017.6
20200328234503 40 25 0.0 2.0 0.05 0.35 0.35 86 1017.6
20200328234000 40 25 0.0 2.0 0.04 0.34 0.34 85 1017.5
20200328233501 40 25 0.0 2.0 0.04 0.34 0.34 85 1017.4
20200328233000 40 130 0.0 1.0 0.04 0.34 0.34 85 1017.4
20200328232459 40 130 0.0 0.0 0.04 0.33 0.33 85 1017.3
20200328231959 40 130 0.0 2.0 0.03 0.32 0.32 85 1017.4
20200328231455 40 130 1.0 3.0 0.04 0.32 0.32 85 1017.4
20200328230954 40 173 1.0 3.0 0.05 0.32 0.32 85 1017.3
20200328230456 40 340 1.0 3.0 0.05 0.31 0.31 84 1017.4
20200328225953 40 35 1.0 3.0 0.05 0.31 0.31 84 1017.4
20200328225453 40 11 1.0 3.0 0.05 0.30 0.30 84 1017.4
20200328224952 40 32 1.0 4.0 0.06 0.30 0.30 84 1017.5
20200328224451 40 237 1.0 4.0 0.07 0.30 0.30 84 1017.7
20200328223949 40 332 1.0 4.0 0.07 0.30 0.30 83 1017.4
20200328223449 40 9 1.0 3.0 0.08 0.30 0.30 83 1017.2
20200328222947 40 329 1.0 3.0 0.08 0.30 0.30 83 1017.1
20200328222447 40 332 0.0 2.0 0.07 0.29 0.29 83 1017.1
20200328221945 40 271 1.0 5.0 0.07 0.29 0.29 83 1017.1
20200328221443 40 244 1.0 5.0 0.06 0.28 0.28 83 1017.0
20200328220942 40 195 2.0 6.0 0.05 0.27 0.27 83 1017.1
20200328220443 40 238 2.0 6.0 0.04 0.26 0.26 83 1017.0
20200328215942 40 49 2.0 5.0 0.05 0.26 0.26 82 1016.9
20200328215443 40 281 2.0 4.0 0.04 0.25 0.25 82 1017.0
20200328214947 40 355 3.0 5.0 0.03 0.24 0.24 82 1017.0
20200328214444 40 25 2.0 5.0 0.02 0.23 0.23 82 1017.2
20200328213940 40 36 1.0 3.0 0.03 0.23 0.23 82 1017.1
20200328213441 40 337 1.0 4.0 0.02 0.22 0.22 82 1017.1
20200328212941 40 5 1.0 5.0 0.03 0.22 0.22 82 1017.1
20200328212439 41 44 2.0 7.0 0.03 0.22 0.22 82 1017.2
20200328211939 40 12 2.0 7.0 0.04 0.22 0.22 80 1017.1
20200328211438 40 46 1.0 6.0 0.04 0.22 0.22 81 1017.0
20200328210938 40 315 2.0 8.0 0.04 0.22 0.22 80 1017.1
20200328210439 40 270 2.0 8.0 0.04 0.22 0.22 81 1017.2
20200328205939 40 19 1.0 2.0 0.04 0.21 0.21 83 1017.4
20200328205439 40 340 0.0 2.0 0.04 0.21 0.21 83 1017.4
20200328204934 40 339 0.0 2.0 0.05 0.21 0.21 83 1017.4
20200328204435 40 339 1.0 2.0 0.05 0.21 0.21 84 1017.5
20200328203934 40 355 1.0 3.0 0.05 0.20 0.20 83 1017.5
20200328203434 40 333 2.0 6.0 0.06 0.20 0.20 83 1017.9
20200328202935 40 342 2.0 6.0 0.06 0.19 0.19 82 1017.7
20200328202434 40 0 1.0 5.0 0.07 0.19 0.19 82 1018.0
20200328201931 40 355 2.0 4.0 0.07 0.18 0.18 82 1018.0
20200328201430 40 334 1.0 4.0 0.07 0.18 0.18 81 1018.0
20200328200930 40 350 1.0 4.0 0.08 0.18 0.18 82 1018.0
20200328200431 40 351 2.0 4.0 0.09 0.18 0.18 82 1017.7
20200328195930 40 355 1.0 4.0 0.09 0.17 0.18 81 1017.4
20200328195430 41 149 0.0 2.0 0.09 0.16 0.17 81 1017.4
20200328194927 40 150 0.0 2.0 0.10 0.16 0.16 81 1017.5
20200328194426 40 150 0.0 2.0 0.09 0.15 0.16 81 1017.5
20200328193926 40 143 0.0 1.0 0.09 0.15 0.15 81 1017.6
20200328193426 40 143 1.0 3.0 0.09 0.14 0.14 81 1017.7
20200328192930 40 143 1.0 4.0 0.08 0.13 0.13 80 1017.5
20200328192426 40 159 1.0 4.0 0.08 0.12 0.12 80 1017.4
20200328191926 40 159 1.0 4.0 0.07 0.11 0.11 78 1017.5
20200328191425 40 113 0.0 2.0 0.07 0.11 0.11 78 1017.9
20200328190925 40 135 0.0 2.0 0.06 0.10 0.10 79 1018.3
20200328190425 40 135 1.0 3.0 0.05 0.09 0.09 79 1018.0
20200328185920 40 135 1.0 3.0 0.04 0.08 0.08 78 1017.7
20200328185420 40 82 2.0 6.0 0.04 0.07 0.08 77 1018.0
20200328184919 40 68 3.0 6.0 0.04 0.06 0.06 76 1018.4
20200328184419 40 63 2.0 7.0 0.04 0.06 0.06 77 1018.7
20200328183917 40 0 3.0 8.0 0.04 0.06 0.06 76 1018.8
20200328183415 40 5 3.0 10.0 0.03 0.05 0.05 76 1018.8
20200328182914 40 10 3.0 10.0 0.03 0.05 0.05 77 1018.7
20200328182417 40 50 3.0 8.0 0.02 0.04 0.04 77 1018.5
20200328181915 40 19 3.0 5.0 0.02 0.04 0.04 77 1018.4
20200328181414 40 333 3.0 6.0 0.03 0.04 0.04 76 1018.1
20200328180914 41 5 2.0 7.0 0.03 0.04 0.04 76 1018.4
20200328180414 41 345 3.0 8.0 0.03 0.04 0.04 75 1018.3
20200328175910 41 105 3.0 8.0 0.04 0.04 0.04 74 1018.5
20200328175411 41 338 3.0 6.0 0.03 0.03 0.03 74 1018.8
20200328174911 42 300 3.0 6.0 0.02 0.02 0.03 72 1018.9
20200328174411 42 328 2.0 5.0 0.02 0.02 0.02 72 1019.4
20200328173910 42 323 2.0 5.0 0.02 0.02 0.02 71 1019.2
20200328173410 42 332 1.0 4.0 0.02 0.02 0.02 68 1019.2
20200328172909 43 344 1.0 4.0 0.02 0.02 0.02 67 1019.1
20200328172407 43 327 1.0 2.0 0.02 0.02 0.02 65 1019.1
20200328171906 43 278 1.0 3.0 0.02 0.02 0.02 66 1019.1
20200328171406 43 273 1.0 3.0 0.01 0.01 0.01 62 1019.4
20200328170906 43 298 1.0 5.0 0.01 0.01 0.01 62 1019.4
20200328170405 43 346 2.0 8.0 0.01 0.01 0.01 62 1019.3
20200328165906 44 295 2.0 8.0 0.00 0.00 0.00 58 1019.4
20200328165402 44 5 2.0 5.0 0.00 0.00 0.00 57 1019.4
20200328164901 45 321 2.0 5.0 0.00 0.00 0.00 52 1019.2
20200328164401 45 327 2.0 5.0 0.00 0.00 0.00 51 1019.0
20200328163900 46 279 2.0 5.0 0.00 0.00 0.00 49 1019.1
20200328163357 46 323 3.0 8.0 0.00 0.00 0.00 51 1019.1
20200328162857 47 250 3.0 10.0 0.00 0.00 0.00 45 1019.0
20200328162352 47 17 3.0 10.0 0.00 0.00 0.00 45 1019.0
20200328161853 47 290 3.0 12.0 0.00 0.00 0.00 40 1018.7
20200328161355 48 5 3.0 12.0 0.00 0.00 0.00 38 1018.7
20200328160853 48 37 2.0 8.0 0.00 0.00 0.00 39 1018.7
20200328160352 48 355 2.0 7.0 0.00 0.00 0.00 36 1018.5
20200328155851 48 5 2.0 7.0 0.00 0.00 0.00 35 1018.6
20200328155346 48 345 1.0 6.0 0.00 0.00 0.00 35 1018.5
20200328154846 48 228 1.0 4.0 0.00 0.00 0.00 35 1018.6
20200328154345 48 281 1.0 4.0 0.00 0.00 0.00 35 1018.6
20200328153847 48 41 2.0 6.0 0.00 0.00 0.00 35 1018.7
20200328153346 47 355 2.0 6.0 0.00 0.00 0.00 35 1018.8
20200328152849 47 41 1.0 5.0 0.00 0.00 0.00 36 1018.8
20200328152341 47 336 1.0 3.0 0.00 0.00 0.00 37 1018.8
20200328151841 47 244 0.0 3.0 0.00 0.00 0.00 38 1018.9
20200328151342 46 300 0.0 2.0 0.00 0.00 0.00 41 1018.9
20200328150842 46 300 1.0 4.0 0.00 0.00 0.00 42 1019.2
20200328150339 45 316 1.0 4.0 0.00 0.00 0.00 44 1019.2
20200328145839 44 288 0.0 3.0 0.00 0.00 0.00 49 1019.2
20200328145336 43 287 0.0 3.0 0.00 0.00 0.00 50 1019.2
20200328144836 43 9 0.0 3.0 0.00 0.00 0.00 54 1019.3
20200328144337 42 9 1.0 3.0 0.00 0.00 0.00 58 1019.3
20200328143835 41 9 2.0 4.0 0.00 0.00 0.00 60 1019.2
20200328143333 40 131 1.0 4.0 0.00 0.00 0.00 61 1019.2
20200328142834 39 171 1.0 2.0 0.00 0.00 0.00 62 1019.2
20200328142330 39 321 1.0 3.0 0.00 0.00 0.00 63 1019.3
20200328141830 38 316 1.0 3.0 0.00 0.00 0.00 63 1019.2
20200328141330 38 88 0.0 2.0 0.00 0.00 0.00 64 1019.2
20200328140830 37 92 0.0 2.0 0.00 0.00 0.00 64 1019.2
20200328140327 36 92 0.0 2.0 0.00 0.00 0.00 65 1019.2
20200328135831 36 98 0.0 2.0 0.00 0.00 0.00 66 1019.1
20200328135326 35 98 0.0 2.0 0.00 0.00 0.00 65 1019.0
20200328134824 35 98 1.0 3.0 0.00 0.00 0.00 66 1018.9
20200328134324 35 98 1.0 3.0 0.00 0.00 0.00 66 1019.1
20200328133824 34 98 0.0 2.0 0.00 0.00 0.00 67 1019.1
20200328133321 34 98 0.0 3.0 0.00 0.00 0.00 66 1019.2
20200328132821 34 98 1.0 3.0 0.00 0.00 0.00 67 1019.2
20200328132318 34 132 0.0 3.0 0.00 0.00 0.00 69 1019.2
20200328131817 33 28 0.0 2.0 0.00 0.00 0.00 70 1019.3
20200328131319 33 28 0.0 2.0 0.00 0.00 0.00 71 1019.3
20200328130815 32 27 0.0 1.0 0.00 0.00 0.00 70 1019.2
20200328130315 32 27 0.0 2.0 0.00 0.00 0.00 70 1019.2
20200328125815 32 27 0.0 2.0 0.00 0.00 0.00 74 1019.1
20200328125309 31 28 0.0 2.0 0.00 0.00 0.00 73 1019.1
20200328124809 31 30 0.0 2.0 0.00 0.00 0.00 74 1019.2
20200328124310 30 30 1.0 2.0 0.00 0.00 0.00 74 1019.4
20200328123810 30 30 1.0 2.0 0.00 0.00 0.00 75 1019.2
20200328123309 30 71 1.0 2.0 0.00 0.00 0.00 76 1019.5
20200328122809 29 78 0.0 2.0 0.00 0.00 0.00 77 1019.7
20200328122310 29 78 0.0 2.0 0.00 0.00 0.00 76 1019.4
20200328121809 29 78 0.0 2.0 0.00 0.00 0.00 77 1019.5
20200328121310 29 78 0.0 2.0 0.00 0.00 0.00 77 1019.3
20200328120803 28 78 0.0 2.0 0.00 0.00 0.00 78 1019.2
20200328120300 28 78 0.0 0.0 0.00 0.00 0.00 78 1019.1
20200328115759 28 78 0.0 0.0 0.00 0.00 0.00 77 1019.2
20200328115300 28 78 0.0 1.0 0.00 0.00 0.00 78 1019.2
20200328114800 27 78 0.0 2.0 0.00 0.00 0.00 78 1019.2
20200328114259 27 78 0.0 2.0 0.00 0.00 0.00 78 1019.4
20200328113800 27 131 0.0 2.0 0.00 0.00 0.00 78 1019.3
20200328113255 27 131 0.0 2.0 0.00 0.00 0.00 78 1019.1
20200328112756 27 131 1.0 2.0 0.00 0.00 0.00 78 1019.2
20200328112255 27 131 1.0 3.0 0.00 0.00 0.00 78 1019.2
20200328111755 27 128 1.0 3.0 0.00 0.00 0.00 79 1019.1
20200328111255 26 115 1.0 3.0 0.00 0.00 0.00 79 1019.0
20200328110756 26 115 0.0 3.0 0.00 0.00 0.00 79 1018.8
20200328110251 26 115 1.0 3.0 0.00 0.00 0.00 79 1018.8
20200328105751 26 109 2.0 3.0 0.00 0.00 0.00 80 1019.0
20200328105252 26 104 1.0 3.0 0.00 0.00 0.00 80 1018.8
20200328104751 26 320 0.0 2.0 0.00 0.00 0.00 80 1018.8
20200328104255 26 321 1.0 2.0 0.00 0.00 0.00 81 1018.9
20200328103755 25 320 0.0 2.0 0.00 0.00 0.00 80 1018.6
20200328103246 25 320 0.0 2.0 0.00 0.00 0.00 80 1018.7
20200328102741 25 320 0.0 2.0 0.00 0.00 0.00 80 1018.8
20200328102242 25 320 0.0 1.0 0.00 0.00 0.00 81 1018.9
20200328101743 25 320 0.0 1.0 0.00 0.00 0.00 81 1018.9
20200328101241 25 321 1.0 3.0 0.00 0.00 0.00 81 1019.0
20200328100739 25 321 1.0 4.0 0.00 0.00 0.00 82 1018.7
20200328100239 25 325 1.0 4.0 0.00 0.00 0.00 81 1018.7
20200328095738 24 20 1.0 3.0 0.00 0.00 0.00 81 1018.8
20200328095235 24 328 1.0 3.0 0.00 0.00 0.00 82 1018.7
20200328094735 24 234 0.0 2.0 0.00 0.00 0.00 82 1018.9
20200328094233 24 234 0.0 2.0 0.00 0.00 0.00 82 1018.8
20200328093731 24 234 0.0 2.0 0.00 0.00 0.00 82 1018.9
20200328093231 23 230 0.0 2.0 0.00 0.00 0.00 82 1018.8
20200328092727 23 230 0.0 1.0 0.00 0.00 0.00 82 1018.9
20200328092228 23 230 0.0 1.0 0.00 0.00 0.00 82 1019.0
20200328091727 23 230 0.0 2.0 0.00 0.00 0.00 82 1018.9
20200328091227 23 230 0.0 2.0 0.00 0.00 0.00 82 1018.9
20200328090725 23 230 0.0 0.0 0.00 0.00 0.00 82 1019.0
20200328090228 23 230 0.0 0.0 0.00 0.00 0.00 82 1018.8
20200328085724 23 230 0.0 0.0 0.00 0.00 0.00 81 1018.7
20200328085221 23 230 0.0 1.0 0.00 0.00 0.00 81 1018.6
20200328084719 23 230 1.0 2.0 0.00 0.00 0.00 81 1018.4
20200328084219 23 230 1.0 2.0 0.00 0.00 0.00 81 1018.3
20200328083717 23 230 1.0 3.0 0.00 0.00 0.00 81 1018.3
20200328083220 23 230 1.0 3.0 0.00 0.00 0.00 81 1018.2
20200328082713 23 242 1.0 3.0 0.00 0.00 0.00 81 1018.2
20200328082211 23 255 0.0 1.0 0.00 0.00 0.00 81 1018.1
20200328081711 23 255 0.0 0.0 0.00 0.00 0.00 81 1018.2
20200328081212 23 255 0.0 0.0 0.00 0.00 0.00 81 1018.4
20200328080711 24 255 0.0 0.0 0.00 0.00 0.00 81 1018.3
20200328080211 24 255 0.0 0.0 0.00 0.00 0.00 81 1018.3
20200328075705 24 255 0.0 0.0 0.00 0.00 0.00 80 1018.3
20200328075203 24 255 0.0 0.0 0.00 0.00 0.00 81 1018.4
20200328074701 24 255 0.0 1.0 0.00 0.00 0.00 80 1018.4
20200328074159 24 255 0.0 1.0 0.00 0.00 0.00 80 1018.6
20200328073659 24 250 0.0 0.0 0.00 0.00 0.00 80 1018.6
20200328073153 24 250 0.0 2.0 0.00 0.00 0.00 79 1018.8
20200328072653 24 250 1.0 3.0 0.00 0.00 0.00 79 1018.8
20200328072156 24 250 0.0 3.0 0.00 0.00 0.00 80 1018.9
20200328071653 24 257 0.0 1.0 0.00 0.00 0.00 80 1018.9
20200328071154 24 257 0.0 1.0 0.00 0.00 0.00 79 1018.9
20200328070653 24 257 0.0 1.0 0.00 0.00 0.00 78 1019.1
20200328070147 25 256 0.0 0.0 0.00 0.00 0.00 78 1019.1
20200328065645 25 256 0.0 0.0 0.00 0.00 0.00 78 1019.2
20200328065142 25 256 0.0 0.0 0.00 0.00 0.00 78 1019.0
20200328064641 25 256 0.0 2.0 0.00 0.00 0.00 77 1018.9
20200328064141 25 256 0.0 2.0 0.00 0.00 0.00 77 1019.2